Location: Antist
(43.1184°N, 0.1270°E)
Time: 22:45:31
(UTC+00:00)

STARLINK-1089 - Pass Details

Date: 19 January 2020
Orbit: 349 x 350 km, 53.0° (Epoch: 17 February)

Event Time Altitude Azimuth Distance (km) Brightness Sun altitude
Rises 18:10:26 0° 259° (WSW) 2,155 8.7 -13.8°
Reaches altitude 10° 18:12:36 10° 271° (W) 1,316 6.8 -14.2°
Maximum altitude 18:15:13 29° 334° (NNW) 685 4.2 -14.6°
Enters shadow 18:16:29 20° 18° (NNE) 878 4.4 -14.9°
